OneWeb SL0223

operational
NORAD ID: 48768 Int'l Des: 2021-045 Owner: ONEWEBN Country: UK Constellation: oneweb
LEOCIRCULARPOLARONEWEB_TYPE

About OneWeb SL0223

Description loading...

Live Position

Loading 3D Globe...

Upcoming Passes

Altitude History

Altitude vs Time

uPlot chart will show altitude changes over time

Two-Line Element Set

1 48768U 21045B 25348.90636811 -.00000061 00000-0 -19713-3 0 9994
2 48768 87.8995 295.9541 0002129 68.1585 291.9771 13.15548237220170
Epoch: Dec 14, 2025 • Age: 18 hours

Current Status

Altitude 1207.2 km
Velocity 7.25 km/s
Sub-Earth Point -13.87°S, 28.32°W
Launch Date May 28, 2021
Age 4.5 years
Type internet

Technical Details

Classification Payload
Mass 148.00 kg
Dry Mass 140.00 kg
Total Mass 148.00 kg
Length 1.30 m
Diameter 1.00 m
Span 5.00 m
Shape Trapezoid+2 pan
Manufacturer ONEWUS
Bus Type ARROW
Phase Status In Orbit
Owner/State ONEWEBN/UK

Large Constellations

Loading constellations...